Location: Arbon
(43.0005°N, 0.7472°E)
Time: 11:42:34
(UTC+00:00)

ADEOS - Pass Details

Date: 22 April 2026
Orbit: 789 x 791 km, 98.8° (Epoch: 15 May)

Event Time Altitude Azimuth Distance (km) Brightness Sun altitude
Exits shadow 20:06:33 16° 151° (SSE) 1,962 5.1 -13.9°
Maximum altitude 20:10:41 66° 73° (ENE) 867 3.6 -14.5°
Drops below altitude 10° 20:15:51 10° 352° (N) 2,366 6.6 -15.3°
Sets 20:18:12 0° 349° (N) 3,300 7.5 -15.7°
